Temp
5 7 9 9 8 9 6 6 5 5 6 6 7 8 11 13 16 17 18 18 17 17 16 15 15 15 17 18 17 15 17 13 13 17 20 20 19 17 17 14 16 17 15 10
6 6 10 9 9 7 6 4 5 5 7 8 7 10 11 14 15 17 16 16 17 16 12 11 10 15 17 18 17 16 16 12 14 16 18 18 18 17 17 15 12 13 13 10
5 5 5 7 6 6 6 4 5 4 5 5 10 10 11 12 16 16 14 14 12 12 10 10 9 12 15 16 16 13 14 15 15 12 13 15 14 14 14 14 13 14 11 7
4 4 4 4 4 4 6 7 6 7 5 5 9 12 12 13 14 15 16 13 12 11 9 10 10 14 14 14 12 14 14 13 12 14 14 12 10 11 10 11 11 12 9 8
3 3 3 4 4 5 5 6 8 9 9 8 9 11 11 14 14 15 15 13 13 12 11 12 10 12 14 13 14 14 14 13 10 9 12 12 9 8 7 11 11 10 9 6
3 3 3 3 4 5 5 8 13 12 10 11 10 9 12 13 14 14 15 14 14 14 15 15 15 16 16 16 14 13 13 13 12 12 11 13 10 8 9 11 12 11 10 7
3 3 3 3 4 4 5 7 9 10 9 11 11 11 13 12 12 12 14 14 14 13 14 14 15 15 15 15 15 14 14 14 14 13 12 12 8 11 12 10 10 9 7 7
3 3 3 3 4 4 5 6 7 7 8 10 8 11 10 9 11 11 12 15 15 14 14 13 13 13 13 14 15 15 15 14 13 13 13 9 9 11 11 11 9 10 8 7
3 3 3 3 4 5 5 7 7 9 8 7 10 9 9 9 10 13 10 12 13 13 14 14 13 13 14 14 15 16 15 15 13 14 13 13 12 12 13 13 10 10 9 7
3 2 2 3 4 5 5 7 8 8 10 11 12 12 11 13 12 11 10 10 11 12 13 13 14 15 17 14 14 13 13 13 12 13 14 10 13 12 12 10 9 10 10 8
2 3 3 4 5 6 5 9 9 10 10 11 14 14 13 14 13 10 11 12 12 11 13 14 15 15 16 15 16 14 14 13 13 14 13 10 12 10 10 9 10 10 10 9
3 3 4 4 6 7 6 8 9 10 11 9 10 9 10 12 13 14 12 13 13 13 14 15 16 14 14 15 13 15 13 14 12 9 8 8 8 9 10 10 9 9 8 6
3 4 5 5 6 8 8 11 10 10 10 11 11 10 10 10 11 12 12 14 13 13 12 15 14 14 15 13 15 14 13 13 11 9 7 7 7 9 10 10 9 8 7 6
3 4 5 6 7 8 10 11 11 12 12 9 9 10 10 10 11 11 12 12 12 13 14 14 13 13 14 14 14 14 13 13 9 7 7 7 7 7 8 8 8 7 7 6
4 4 6 7 7 8 9 10 10 11 12 9 9 10 10 11 11 11 11 12 12 13 13 13 13 14 14 14 14 14 14 11 9 10 8 8 7 6 6 5 6 6 6 5
4 6 6 6 7 8 9 5 10 11 12 11 8 10 11 11 11 12 12 13 13 14 14 14 13 13 12 13 12 13 13 13 12 10 9 9 7 6 6 5 5 5 5 5
5 5 6 7 8 9 9 8 8 9 11 10 9 8 10 11 11 11 11 12 12 13 13 13 13 12 12 12 12 12 12 11 11 10 9 7 7 7 7 6 5 5 4 4
5 6 7 7 8 8 8 7 9 9 12 13 9 8 9 11 10 10 12 11 12 12 12 12 13 12 12 11 12 12 11 10 10 9 9 8 8 7 7 6 4 4 3 3
5 6 6 7 7 9 8 8 9 9 11 10 9 8 8 10 11 10 11 12 10 11 11 12 12 12 10 12 13 12 11 10 9 10 9 8 8 7 6 5 5 4 3 2
5 6 4 4 6 6 7 9 9 9 10 12 10 10 8 11 10 10 9 10 10 9 11 11 10 11 12 13 13 13 11 11 10 9 8 8 7 6 5 5 4 4 2 2
6 4 4 5 6 8 8 5 8 9 9 11 10 10 8 11 9 9 10 10 10 10 10 10 10 11 10 12 13 12 11 11 10 10 9 8 7 6 5 4 4 3 2 1
6 5 5 6 8 7 6 7 9 10 9 9 9 9 9 9 10 9 9 8 9 9 10 9 9 9 11 11 12 11 11 10 10 9 9 8 7 6 5 4 4 3 2 0
5 5 4 6 5 6 7 6 8 8 8 9 8 7 8 9 9 7 8 7 8 10 8 9 10 10 11 11 11 10 10 9 9 9 8 7 6 5 5 4 3 1 -2 -3
7 5 5 6 5 7 8 9 8 7 8 8 8 8 9 8 6 7 7 7 8 8 8 10 9 8 8 9 9 9 7 5 6 6 6 5 3 2 3 2 0 -2 -4 -5
5 6 5 6 5 5 5 5 6 7 8 8 8 9 8 7 5 7 7 6 8 9 10 9 7 5 7 7 5 3 2 1 1 1 0 -1 -1 -2 -3 -2 -3 -4 -5 -6
5 5 4 5 5 4 3 4 5 6 8 8 10 9 7 7 7 8 8 9 9 9 8 8 6 4 4 4 2 1 0 0 -0 -0 -1 -2 -2 -3 -4 -4 -5 -6 -6 -7
4 3 3 3 4 4 3 4 5 6 7 7 9 7 8 9 9 9 10 8 8 8 7 4 2 2 2 2 1 0 -0 -0 -0 -1 -2 -3 -3 -4 -5 -5 -7 -7 -8 -8
Height
697 685 675 669 674 686 700 710 729 734 744 760 760 752 743 741 732 734 728 731 733 740 745 755 757 757 751 749 760 769 764 779 779 755 742 739 747 756 760 776 761 749 762 790
690 675 658 654 661 666 684 708 719 735 736 732 746 739 739 735 733 728 730 735 734 744 757 768 769 754 750 751 757 763 766 779 772 758 752 748 752 758 757 766 779 770 773 793
690 681 665 664 672 675 676 696 717 732 737 734 725 734 730 735 726 730 738 738 749 756 766 771 775 761 758 757 759 771 770 766 765 775 771 761 768 769 771 770 771 763 780 810
696 692 684 681 685 682 677 686 699 708 721 730 721 716 725 722 725 726 728 744 750 756 773 770 768 753 760 764 770 769 771 774 775 766 770 774 788 784 787 777 776 768 791 799
699 697 691 693 691 688 689 689 690 704 707 724 716 719 722 713 719 719 726 736 739 749 754 752 762 757 757 761 764 769 770 773 788 792 774 774 795 796 800 778 780 785 794 814
701 699 697 698 696 695 694 688 682 688 704 707 713 719 714 714 719 725 725 731 734 740 734 737 741 744 747 749 759 766 767 770 774 770 775 771 783 792 785 778 775 776 780 801
699 701 701 702 702 701 699 694 689 690 703 703 707 713 708 717 729 730 727 730 732 742 739 742 746 749 752 751 755 760 761 760 760 760 770 768 790 777 775 783 787 789 799 806
697 699 702 703 704 702 702 700 699 702 705 702 716 714 721 732 733 737 733 728 730 740 743 748 752 756 757 754 750 752 752 758 760 758 757 783 787 775 777 776 789 789 795 803
698 700 703 704 703 701 701 701 701 701 706 713 711 717 724 732 734 727 738 738 741 742 741 739 741 747 743 745 747 747 752 750 760 750 752 751 760 764 768 769 777 785 792 800
699 702 704 704 703 702 703 702 702 701 697 704 706 708 717 718 722 732 740 743 747 745 741 741 735 732 722 739 744 750 753 753 757 752 748 770 763 768 773 780 782 780 786 796
700 703 703 704 704 704 704 700 699 699 697 702 701 706 712 712 717 730 734 741 741 746 739 735 730 729 727 732 727 742 744 748 747 746 749 766 771 779 780 784 781 784 786 791
701 704 705 705 702 701 703 701 700 699 699 713 713 717 719 717 719 719 730 728 733 734 733 728 724 731 736 732 743 737 744 743 752 772 778 784 785 784 782 784 787 791 795 804
702 703 703 703 702 699 699 697 698 700 705 711 716 722 722 722 723 724 728 725 731 731 735 728 731 733 732 737 732 739 746 748 761 775 789 788 789 786 786 788 792 797 803 809
703 704 705 703 701 700 697 700 701 702 707 718 729 728 727 729 728 730 730 731 735 735 733 734 736 737 734 733 735 736 744 748 768 785 787 790 790 791 793 795 799 804 808 811
704 706 705 704 704 703 703 704 706 705 708 718 729 732 734 733 733 733 735 736 737 737 738 739 737 736 738 737 736 739 742 755 766 762 774 775 785 793 797 802 805 809 812 816
705 705 706 707 706 706 706 711 709 707 712 718 732 736 737 737 736 736 736 736 735 734 733 735 739 744 746 741 742 744 749 750 756 764 769 774 785 794 799 803 807 811 815 818
706 709 710 710 710 709 709 714 716 715 715 721 731 738 739 739 738 740 741 740 740 736 739 738 739 745 748 746 745 750 754 760 762 767 773 782 787 792 798 803 808 813 817 821
709 711 713 713 712 713 717 717 717 716 713 715 728 739 741 740 739 743 742 742 741 743 743 745 741 748 748 748 748 753 759 764 768 772 776 782 787 793 800 805 811 814 819 823
712 714 714 715 716 717 722 721 719 719 721 720 728 733 741 739 738 742 744 742 747 748 746 743 746 744 752 748 746 754 760 765 771 774 777 783 788 794 800 806 811 815 820 825
714 716 717 721 723 723 722 723 723 723 723 719 725 728 739 735 738 742 748 747 748 750 749 748 751 745 749 749 748 752 760 764 770 773 779 783 790 794 801 806 810 814 820 824
716 721 723 726 725 725 727 733 727 723 726 724 729 732 737 738 741 745 744 745 746 746 752 752 749 747 753 752 751 755 761 765 769 773 779 784 790 795 801 806 810 814 819 824
717 719 724 728 728 729 731 729 725 719 723 731 733 736 739 744 742 745 748 753 752 748 750 755 751 756 753 754 755 760 764 767 771 774 779 785 789 795 801 806 810 814 819 823
720 724 730 730 734 732 726 734 723 725 731 732 735 741 743 745 746 753 751 757 754 751 760 754 750 755 755 757 759 764 767 772 774 777 781 786 791 796 801 805 810 814 818 823
722 728 733 731 731 724 722 719 722 733 732 732 736 738 740 746 755 755 755 761 756 757 756 749 754 761 762 761 764 766 772 776 779 783 786 790 793 798 801 805 810 814 819 824
727 727 731 731 734 737 738 739 736 735 733 735 737 738 744 750 759 752 760 763 755 750 745 752 763 768 767 768 770 774 778 781 785 787 791 795 798 802 806 809 812 816 820 824
733 735 736 736 737 742 743 742 741 740 736 737 735 739 746 749 749 750 750 745 742 746 754 758 766 770 771 773 776 780 781 783 788 791 794 798 801 805 809 812 815 818 821 825
736 741 741 741 739 742 745 744 744 743 741 741 734 743 743 743 743 744 739 746 752 755 759 767 774 775 776 777 780 783 785 787 791 795 798 801 804 807 810 814 817 820 823 826
Wind_Speed
41 45 47 41 31 31 44 15 6 38 49 10 7 12 18 16 18 22 17 16 12 13 17 15 8 12 6 8 12 11 4 3 4 11 8 8 8 9 10 5 7 7 5 2
18 23 31 22 36 72 32 6 4 26 41 12 10 11 14 14 21 17 13 11 8 4 3 5 3 6 3 9 9 4 6 4 3 6 6 6 5 5 5 5 3 9 5 3
18 22 34 27 39 31 15 5 6 4 7 3 17 16 16 14 20 18 10 7 6 5 3 2 6 8 6 7 6 6 3 5 10 3 3 2 2 4 8 11 6 5 1 7
11 19 16 18 12 6 3 1 5 8 11 7 16 20 15 23 19 15 19 9 10 10 4 5 5 11 10 8 9 5 3 5 1 4 3 6 3 2 5 5 5 5 8 7
6 7 15 18 14 7 5 1 6 10 17 15 15 18 21 23 21 18 23 10 18 16 8 9 9 13 12 7 11 9 6 3 3 3 5 2 3 5 7 1 4 7 11 7
10 8 9 10 17 11 4 6 14 9 14 18 11 11 18 17 13 11 14 7 12 17 9 12 13 12 10 4 13 11 6 6 6 5 9 9 7 6 2 4 4 7 8 8
21 13 6 7 4 10 3 5 5 5 12 13 13 18 18 19 14 8 9 10 9 6 12 11 10 6 7 6 10 10 9 11 7 2 8 6 2 7 6 7 6 10 15 13
16 12 9 5 4 5 5 5 3 2 6 11 11 16 14 15 9 7 14 10 9 9 10 6 8 4 5 8 10 9 8 5 3 3 9 4 4 10 9 9 6 10 12 13
16 18 12 8 9 4 2 6 3 3 6 9 19 19 20 11 14 10 9 9 6 6 4 6 6 6 8 8 8 10 7 8 4 6 5 3 6 12 10 5 6 11 13 13
19 12 9 5 4 9 5 4 7 5 3 13 18 15 16 15 9 6 8 6 4 4 4 6 5 6 11 7 10 8 9 8 10 7 6 4 5 9 3 5 3 13 13 13
11 8 2 4 3 8 7 4 7 6 2 5 14 14 16 12 7 7 11 6 4 2 5 5 4 1 4 3 1 10 9 6 6 6 7 4 9 6 4 4 9 8 10 9
9 7 2 5 9 9 8 7 6 8 6 9 24 23 16 11 12 7 11 3 10 5 4 4 4 2 0 6 3 2 1 3 2 4 2 2 5 2 8 8 9 8 11 12
11 6 4 6 8 6 7 8 18 22 7 8 8 9 16 13 12 10 4 2 4 2 3 1 2 2 2 3 2 5 4 2 4 6 4 6 5 5 6 9 10 11 12 13
11 8 5 5 0 1 11 16 5 14 5 4 6 10 13 8 8 9 10 9 4 3 2 1 2 2 0 2 2 2 3 7 8 4 7 7 7 8 9 10 11 11 12 12
11 7 2 5 9 11 13 13 9 5 2 6 9 15 11 10 11 11 10 9 6 4 2 1 2 2 2 2 3 2 6 6 4 2 13 6 13 12 13 12 11 10 11 11
12 7 6 10 11 7 4 5 11 17 23 7 3 7 9 10 11 11 8 4 2 2 2 2 3 2 2 2 3 5 7 7 5 3 13 7 14 14 17 15 14 14 13 14
14 9 7 5 4 4 2 3 2 5 9 4 5 4 2 7 8 7 5 3 2 1 2 0 3 2 2 1 1 5 6 7 6 14 13 12 16 13 14 15 16 16 15 14
14 12 14 12 11 10 8 8 6 6 1 3 3 4 5 3 5 3 2 3 2 4 3 1 1 2 1 1 7 8 8 10 10 10 9 13 14 15 14 16 16 13 11 13
19 16 10 7 7 3 4 5 7 6 2 2 2 6 4 3 3 3 2 1 2 1 1 2 1 3 2 1 5 9 9 8 11 9 12 14 12 14 14 14 13 12 11 12
15 3 4 3 3 5 5 2 2 3 2 2 3 4 4 5 4 2 2 2 3 3 2 3 1 1 5 1 1 8 9 7 12 10 12 13 13 12 13 12 13 12 12 13
4 2 2 2 5 2 2 1 1 2 2 2 3 7 6 2 3 2 3 2 1 2 3 2 3 2 3 3 3 8 8 6 10 9 9 11 12 10 10 10 12 14 16 14
3 10 10 4 1 1 2 2 0 3 4 4 6 7 5 2 2 3 1 2 2 3 2 1 1 3 6 4 6 8 7 8 8 9 12 13 15 15 13 13 12 14 15 16
5 5 3 1 2 2 3 3 2 4 3 3 5 5 3 2 3 2 2 2 2 2 1 2 2 5 4 5 6 7 8 8 7 8 9 10 13 15 14 13 13 16 18 19
2 2 3 2 2 2 3 3 4 2 4 7 6 4 3 2 3 1 3 2 1 3 3 3 6 6 3 3 4 7 6 5 5 7 10 10 12 11 13 17 20 20 17 16
3 2 2 1 3 4 4 2 2 2 5 6 4 3 3 2 3 1 3 2 3 3 1 3 5 3 1 3 6 7 7 6 6 13 12 14 16 16 15 17 17 17 17 17
3 4 2 2 4 2 1 3 2 3 3 3 1 3 2 2 4 3 3 4 2 2 4 4 5 4 3 4 6 5 7 12 11 11 12 13 14 13 12 12 12 13 15 16
2 2 3 2 4 4 2 1 2 1 2 1 1 2 2 2 2 3 1 2 4 5 5 5 4 3 4 4 6 8 8 11 11 10 10 10 11 13 13 11 9 11 11 13
Wind_Direction
304 301 295 282 254 197 152 154 150 161 155 162 195 207 215 221 227 227 201 201 209 213 189 184 215 225 263 172 189 205 207 80 263 225 254 279 211 234 247 232 259 278 292 113
327 326 294 261 191 160 144 118 103 164 166 180 190 195 209 234 210 203 180 207 196 139 133 157 154 235 188 176 202 195 159 170 228 218 216 196 226 200 254 223 201 254 269 114
35 44 57 102 141 147 129 123 131 135 203 316 186 182 193 204 204 185 176 164 107 120 136 79 182 191 185 169 165 76 304 256 253 332 17 133 211 330 317 276 252 276 355 138
44 45 56 70 71 115 107 88 140 159 188 197 189 181 186 190 181 186 187 148 176 157 144 190 210 186 161 199 149 192 215 270 329 305 103 77 48 329 319 276 301 250 142 135
65 75 56 52 39 71 67 123 143 169 159 191 181 176 196 185 183 180 188 180 191 185 166 193 178 184 177 179 176 209 194 231 141 272 245 189 199 227 241 172 120 112 124 124
201 98 62 44 38 29 14 286 151 156 166 178 171 185 179 183 153 198 180 193 176 197 203 203 179 179 184 211 173 185 194 211 187 250 192 226 234 200 189 167 60 181 189 130
211 206 98 53 43 34 4 324 46 126 162 180 180 176 175 146 179 171 164 220 166 98 88 76 100 124 174 181 176 198 210 206 211 304 166 228 93 181 181 142 121 107 113 141
208 213 194 314 331 342 141 142 27 74 139 162 149 162 153 151 182 196 203 167 136 137 143 131 137 160 188 215 223 207 228 220 255 230 217 104 191 198 172 178 171 153 140 136
202 197 212 272 316 323 190 191 234 211 137 185 159 158 162 170 190 184 80 81 119 166 214 189 186 174 198 178 182 199 226 249 254 289 264 254 83 167 200 204 209 182 160 156
186 196 216 279 329 164 281 308 245 249 152 167 177 176 166 176 152 141 143 137 164 233 219 208 215 228 196 158 185 184 206 212 226 246 267 94 130 122 144 210 118 160 164 165
167 160 215 312 207 254 246 261 189 153 94 151 173 168 182 155 149 144 158 162 186 191 202 207 236 3 213 157 259 170 185 207 201 233 240 177 124 148 236 95 121 150 146 167
179 160 205 275 278 284 243 198 182 147 72 92 80 60 49 56 16 149 164 154 167 170 206 223 238 133 73 223 191 98 16 22 79 13 65 99 29 90 139 136 128 122 113 121
158 174 260 273 291 247 238 118 109 101 116 86 59 44 43 49 50 79 163 198 112 165 357 325 12 202 153 224 215 139 140 141 88 173 130 144 108 106 123 128 119 118 124 132
168 195 231 288 344 195 122 118 86 121 100 104 89 71 56 54 80 72 56 100 68 109 286 113 160 249 147 354 74 37 31 140 121 97 147 149 174 132 126 117 115 121 129 141
180 181 185 138 123 100 95 78 47 33 111 118 112 93 79 87 101 108 113 138 156 163 124 155 208 64 345 51 9 180 189 148 177 223 175 181 166 153 143 134 138 136 131 131
164 147 147 140 138 143 65 36 35 67 114 120 90 87 99 94 95 100 104 115 130 189 165 107 82 38 327 187 196 101 81 99 66 139 159 152 137 161 160 156 158 150 149 148
148 154 136 92 58 72 72 109 103 60 100 111 132 117 100 109 114 118 110 107 40 109 79 210 113 153 286 25 327 120 117 103 111 126 118 129 153 159 155 153 150 149 145 144
145 130 116 98 89 69 67 43 72 9 282 102 100 109 144 227 143 101 308 117 141 8 71 161 163 118 263 277 126 137 134 124 124 139 153 152 156 151 153 151 152 149 148 147
137 124 94 66 28 67 74 64 62 26 357 96 121 144 133 196 80 107 56 330 74 295 150 106 293 142 182 271 148 155 158 154 155 168 142 157 154 160 155 156 162 159 155 155
132 77 44 53 29 107 28 15 32 22 10 2 102 96 125 146 151 80 118 320 147 154 83 108 297 39 116 154 178 154 158 167 160 172 158 166 168 166 165 169 168 161 159 161
125 68 64 100 31 22 12 38 138 151 98 76 94 127 128 179 120 115 21 130 236 178 108 193 192 152 124 183 141 127 153 163 170 164 167 164 173 164 167 168 172 158 161 163
114 116 98 49 350 77 93 86 75 238 107 156 145 138 111 73 333 100 220 87 287 89 119 88 231 104 118 143 139 132 150 143 158 167 161 170 167 168 173 172 170 163 163 160
94 62 55 292 3 141 183 145 197 113 109 146 134 122 124 142 70 37 88 136 82 154 103 203 74 98 104 135 143 138 126 146 164 132 141 145 150 163 171 160 157 142 138 158
83 123 127 277 146 207 26 17 78 86 143 146 137 134 84 101 64 277 99 50 186 168 190 165 106 74 50 93 133 136 127 102 108 103 123 122 121 116 143 148 153 151 147 165
76 144 141 116 67 46 60 18 88 126 162 142 135 109 97 101 106 134 119 159 177 213 181 94 106 92 152 96 74 110 116 103 97 111 107 114 126 120 116 146 153 165 167 173
51 34 115 128 113 104 68 78 122 320 151 173 188 119 102 131 129 155 196 182 159 97 84 97 106 79 60 103 91 119 112 119 116 118 129 138 141 136 136 145 153 172 180 176
44 68 22 324 63 78 61 164 180 262 202 214 101 107 77 126 162 150 34 35 85 108 87 72 64 103 147 147 131 129 136 125 132 133 142 143 145 144 140 154 159 168 176 179